Track FLOCK 4V 18 now! 10-day predictions FLOCK 4V 18 is classified as:
1 46597U 20061BG 21025.45572814 .00002029 00000-0 11136-3 0 9994 2 46597 97.4600 101.9563 0009172 95.1762 265.0517 15.15234735 16811